Regional Weather Roundup
Issued by NWS

Home | Current Version | Previous Version | Graphics & Text | Print | Product List | Glossary On
Versions: 1 2 3 4 5 6 7 8 9 10 11 12 13 14 15 16 17 18 19 20 21 22 23 24 25 26 27
000
ASUS45 KSLC 290110
RWRUT

UTAH REGIONAL WEATHER ROUNDUP
NATIONAL WEATHER SERVICE SALT LAKE CITY UT
700 PM MDT WED SEP 28 2016

UTZ001>011-023>025-290200-

NORTHERN UTAH

CITY           SKY/WX    TMP DP  RH WIND       PRES   REMARKS
BRIGHAM CITY     N/A     78  45  31 CALM      30.11S
HILL AFB       MOCLDY    75  50  41 NW5       30.14S
LOGAN          MOCLDY    76  51  41 N3        30.12S
OGDEN          MOCLDY    74  50  42 N3        30.11S
PROVO AIRPORT  LGT RAIN  70  50  49 SW18G29   30.17R
SALT LAKE CITY CLOUDY    73  53  49 N6        30.12R
VERNAL         CLOUDY    64  52  64 W5        30.21S
WENDOVER       PTCLDY   N/A N/A N/A MISG        N/A
HEBER CITY     CLOUDY    66  41  39 CALM      30.18R
WEST JORDAN    CLOUDY    73  46  38 W7        30.14S

$$

UTZ012>022-026-027-290200-

SOUTHERN/CENTRAL UTAH

CITY           SKY/WX    TMP DP  RH WIND       PRES   REMARKS
BLANDING       CLOUDY    70  38  31 W6        30.34S
BRYCE CANYON   LGT RAIN  55  45  68 S13       30.36R
CEDAR CITY     MOCLDY    61  48  62 W5        30.20S
DELTA          CLOUDY    68  46  45 CALM      30.17F
MILFORD        CLOUDY    69  45  41 W6        30.17F
MOAB/CYNLANDS  MOCLDY    81  36  19 NW8       30.14R
PRICE          CLOUDY    71  37  28 SE5       30.24S
ST GEORGE      CLOUDY    81  46  30 NE3       30.07R

$$

REGIONAL REPORTS     COLORADO/ARIZONA

CITY           SKY/WX    TMP DP  RH WIND       PRES   REMARKS
CRAIG, CO      CLEAR     68  34  28 VRB3      30.25S
GRAND JUNCTION CLOUDY    76  35  22 N8        30.15S
RIFLE          CLEAR     75  37  25 W8        30.19S
MONTROSE       CLOUDY    73  39  29 SE6       30.24R
CORTEZ         CLOUDY    71  41  33 W7        30.27R
PAGE, AZ       CLOUDY    74  47  38 S9        30.17S
GRAND CANYON   LGT RAIN  60  50  69 N5        30.30R
KINGMAN        MOCLDY    74  52  46 SW13      30.07R
FLAGSTAFF      LGT RAIN  59  53  80 VRB3      30.31R

$$

REGIONAL REPORTS    NEVADA/IDAHO/WYOMING

CITY           SKY/WX    TMP DP  RH WIND       PRES   REMARKS
LAS VEGAS, NV  LGT RAIN  82  49  31 SW16      29.98S
ELY            MOCLDY    69  34  27 S6        30.20F
ELKO           CLEAR     80  30  16 E6        30.06F
POCATELLO, ID  CLEAR     74  41  30 S8        30.11S
BURLEY         CLEAR     74  48  39 E3        30.04F
EVANSTON, WY   CLOUDY    68  33  27 NE7       30.30R
ROCK SPRINGS   LGT RAIN  68  32  26 CALM      30.30S

$$




USA.gov is the U.S. government's official web portal to all federal, state and local government web resources and services.